Theta_e
331 338 350 352 352 352 351 350 351 353 353 352 350 350 350 350 350 350 350 351 352 352 353 353 353 352 351 350 352 352 352 353 353 353 353 353 352 352 355 353 353 351 355
335 341 351 349 352 350 351 352 350 350 353 353 351 350 350 349 349 350 350 350 350 351 352 353 351 352 350 350 352 352 351 353 353 351 349 349 350 353 354 353 353 351 353
337 343 348 349 349 350 352 353 351 352 353 353 351 350 349 349 349 349 350 350 350 351 352 351 351 351 351 351 352 352 352 352 350 350 349 344 346 353 354 354 353 354 354
339 343 344 348 349 351 352 353 350 352 351 352 351 350 349 349 349 349 349 349 350 350 351 352 352 352 352 352 352 352 352 351 349 347 344 344 347 353 353 354 354 354 353
340 340 342 348 351 351 351 351 350 349 351 352 352 351 350 349 349 349 350 350 351 351 352 352 352 351 351 351 351 351 351 350 347 344 341 341 344 351 352 354 353 353 353
338 338 343 346 351 351 350 348 348 348 351 352 352 352 350 349 349 349 350 350 348 350 350 350 350 350 350 351 352 351 351 349 344 339 339 343 343 353 353 353 352 352 352
338 339 341 347 350 350 350 348 347 350 353 352 351 350 350 349 349 350 349 349 347 349 350 349 349 349 349 349 350 350 350 345 338 337 338 340 341 353 353 352 352 352 352
327 337 340 343 346 348 348 348 349 350 352 352 351 350 349 348 348 349 349 349 349 348 348 349 349 348 349 349 349 349 346 341 337 337 337 338 344 352 353 352 352 351 350
302 303 305 325 340 342 345 345 347 350 349 348 348 349 347 346 347 348 346 346 346 346 347 348 349 348 348 348 348 347 342 338 336 336 337 336 345 351 351 351 351 350 350
296 297 297 300 304 321 341 342 343 345 344 345 345 343 341 340 342 344 343 344 344 345 345 347 348 347 346 345 344 342 339 336 335 335 335 337 347 350 350 350 350 349 348
291 292 293 294 297 303 315 336 340 339 340 341 340 337 336 332 333 334 337 338 341 342 342 344 346 344 342 339 339 336 335 333 332 333 334 340 348 349 350 350 350 348 347
286 288 290 291 293 299 308 321 334 334 338 339 338 334 329 327 327 330 329 334 339 339 339 341 344 341 334 331 332 334 331 335 334 333 334 341 348 349 349 348 347 347 347
284 286 287 288 291 294 297 304 328 331 331 332 332 330 325 322 321 321 323 323 325 329 328 330 334 334 330 331 330 330 332 334 334 335 335 340 345 347 349 347 347 346 344
282 283 285 286 288 291 293 299 306 328 328 327 325 326 324 318 316 319 319 323 320 323 324 326 327 331 330 328 328 331 331 331 333 335 334 337 340 343 347 348 345 344 343
279 281 282 284 286 288 290 293 299 310 325 324 323 322 323 319 316 320 319 321 320 325 329 330 326 329 329 328 329 329 328 328 329 332 336 331 336 335 341 344 344 343 342
278 278 280 282 285 285 286 289 293 301 321 322 323 324 319 317 315 319 318 320 322 326 329 329 328 327 325 326 325 325 324 323 324 331 335 334 334 334 339 341 342 342 341
277 278 279 281 283 283 284 287 290 296 304 323 322 320 319 317 316 318 317 318 323 325 327 328 327 324 322 322 319 319 319 318 319 323 334 336 336 334 338 340 340 340 339
276 276 278 280 281 281 282 285 288 292 299 320 321 319 318 318 318 318 318 319 322 325 327 325 323 318 316 314 312 312 314 315 315 317 322 334 334 335 336 337 338 338 336
275 275 276 278 279 279 281 283 285 292 301 318 319 318 317 318 318 318 317 318 322 322 323 321 317 313 308 306 304 303 303 308 310 313 315 321 325 328 329 330 331 331 332
274 274 275 276 277 278 280 280 282 288 293 294 311 316 315 316 317 317 317 318 321 319 317 316 310 308 305 302 301 299 299 300 304 307 309 313 315 315 318 321 323 325 327
273 272 273 274 275 277 277 276 278 280 282 290 299 310 313 314 315 316 316 317 318 317 314 311 307 302 301 304 302 301 301 299 297 300 305 307 308 310 311 311 313 320 322
271 271 272 273 274 275 276 276 278 278 283 290 296 298 311 312 313 316 316 317 316 313 309 307 306 304 304 307 305 305 298 301 298 296 298 303 302 305 306 307 308 310 312
269 270 271 272 273 274 274 275 276 279 280 286 285 290 296 302 313 316 316 316 313 312 308 307 307 307 305 305 305 300 298 295 294 294 294 297 300 300 301 303 304 306 308
269 270 270 271 271 273 273 273 273 274 274 277 280 285 291 296 310 315 316 314 312 311 308 308 309 310 307 305 301 302 301 303 293 292 293 292 296 297 298 300 300 302 305
268 268 269 269 270 271 271 272 272 272 274 275 278 281 287 295 310 313 315 313 311 310 309 308 309 310 309 306 300 302 301 297 298 298 288 290 293 293 295 297 298 300 301
266 267 267 268 268 270 270 270 270 270 271 273 274 277 281 286 295 311 313 312 311 310 309 308 310 309 309 303 302 303 302 300 299 296 292 290 290 289 292 295 297 297 299
Wind_Speed
3 5 17 15 15 15 16 15 14 12 12 13 14 14 13 13 13 11 10 10 9 8 8 8 8 8 6 4 7 7 8 7 6 8 8 8 11 13 14 14 13 11 17
6 6 13 16 14 16 15 14 14 13 11 11 13 13 13 12 11 11 10 9 9 8 7 7 8 7 5 5 7 7 7 6 7 9 9 7 9 12 14 12 13 13 17
7 10 11 17 17 16 13 13 13 13 11 11 12 12 11 11 10 10 10 9 8 8 8 7 8 7 6 6 7 7 7 6 7 10 10 5 5 13 15 13 14 16 17
5 8 13 16 15 14 13 13 14 14 13 11 11 11 10 10 10 9 9 9 9 7 7 7 7 7 6 7 6 7 7 7 8 9 5 5 8 13 14 16 17 17 17
5 3 7 15 12 13 13 12 13 14 12 11 10 10 10 10 10 10 10 9 8 6 4 7 6 5 7 7 8 7 8 8 9 7 6 5 5 12 15 16 16 17 17
3 2 6 14 11 11 12 13 14 13 13 11 10 10 10 10 10 9 8 8 7 6 4 4 7 6 6 7 9 10 11 9 9 6 5 7 6 15 17 16 16 16 17
8 6 3 8 7 7 8 10 11 9 12 10 10 10 10 9 8 8 7 6 6 5 6 6 7 8 7 6 6 6 10 10 6 5 4 4 5 17 17 17 18 19 18
19 12 8 4 6 6 8 10 11 11 10 11 9 9 9 8 7 7 7 7 8 8 8 8 7 8 8 7 8 8 11 9 5 6 5 4 8 16 18 18 19 19 20
24 24 23 21 11 8 7 10 10 10 12 10 9 8 7 7 6 6 6 6 6 7 8 7 7 8 7 7 8 11 10 8 5 3 5 3 8 17 19 19 19 22 23
23 22 24 22 21 22 7 8 10 10 11 11 9 8 6 4 5 6 6 5 4 3 6 6 7 8 8 8 8 9 9 7 5 4 3 3 11 17 20 20 21 24 26
23 24 22 23 22 21 20 8 7 9 8 9 9 8 4 2 2 4 4 6 5 4 5 5 6 9 10 8 8 9 7 2 3 3 3 8 14 19 21 22 24 25 26
26 24 21 22 22 21 16 19 6 5 1 1 4 4 4 2 0 1 1 3 6 5 5 5 6 9 9 4 3 6 2 3 2 4 4 11 14 18 23 24 26 26 27
21 18 22 21 20 19 17 13 8 2 2 1 3 4 3 3 1 1 1 2 2 3 1 3 3 3 4 5 3 2 2 3 2 3 4 10 12 17 24 26 27 28 28
22 22 22 23 20 19 14 11 14 7 3 2 2 4 3 3 2 2 1 2 2 2 2 2 2 4 5 5 5 4 2 2 1 2 4 14 16 10 21 30 32 30 27
23 23 22 22 21 19 18 13 13 13 5 4 4 4 3 3 3 3 2 2 2 2 3 3 3 4 4 5 4 4 3 3 2 2 4 11 16 19 7 27 28 27 27
22 23 22 22 21 20 17 18 14 11 12 4 4 6 6 4 4 3 2 3 3 4 3 4 5 5 3 5 6 5 4 3 3 4 7 9 19 21 21 20 24 26 27
19 21 22 22 21 20 19 17 13 12 13 7 5 6 7 6 5 5 4 4 4 5 5 5 6 5 6 4 6 6 5 5 5 4 6 8 12 20 22 24 23 26 27
20 22 21 19 21 23 20 16 13 13 11 11 4 5 7 7 6 5 3 3 3 4 5 6 7 6 6 5 6 6 4 6 7 8 6 11 10 9 15 24 24 26 26
19 21 23 22 21 23 20 16 16 16 11 9 4 4 6 7 7 5 4 4 4 3 5 6 6 8 8 7 8 7 7 7 7 7 7 12 13 11 10 17 20 22 22
18 19 20 18 21 21 15 15 14 11 11 12 10 4 4 5 10 5 4 4 5 5 4 6 10 7 9 9 9 10 8 7 7 7 10 9 13 11 11 12 9 10 21
18 20 21 22 22 17 15 16 15 14 16 12 11 13 5 5 6 8 5 5 5 7 8 11 10 14 7 10 11 10 10 8 12 9 8 9 14 9 12 10 6 7 9
19 19 21 20 21 16 13 13 10 13 9 14 10 15 7 6 6 7 7 7 8 7 11 10 14 8 5 7 7 9 4 4 8 11 11 8 12 7 11 11 10 9 7
20 20 19 20 20 17 18 13 12 10 9 10 14 13 12 15 7 7 8 7 8 9 11 13 14 15 11 2 4 6 5 3 3 7 11 8 11 8 8 9 10 9 9
18 18 19 19 19 16 18 14 16 11 12 11 13 14 14 17 10 7 9 8 10 8 11 12 12 14 11 13 2 3 1 11 6 5 5 7 8 9 8 7 8 7 8
16 16 16 17 18 18 17 16 12 13 11 11 12 18 16 15 8 8 10 11 10 8 10 12 12 10 9 9 3 5 11 5 2 8 6 1 6 6 6 6 6 7 6
14 16 17 19 19 19 18 17 16 16 15 12 15 14 13 12 11 7 8 11 12 10 12 11 10 12 11 8 6 10 11 9 12 9 7 4 6 4 4 5 5 5 4
Wind_Direction
222 190 173 173 173 169 168 170 167 160 153 146 141 142 140 138 141 144 147 152 160 172 169 168 154 160 144 144 157 166 153 150 161 150 120 132 130 129 125 127 117 115 115
147 171 174 176 179 177 174 173 173 170 161 154 149 147 147 148 145 147 152 154 165 178 169 157 157 163 159 140 161 148 155 158 151 162 140 142 142 136 132 134 120 121 118
155 170 177 183 182 181 178 176 176 169 168 161 156 154 155 153 154 151 157 161 170 183 164 162 164 173 170 139 129 147 147 142 143 138 142 147 142 145 140 135 131 127 122
173 173 176 185 185 183 184 182 182 165 172 168 163 161 161 162 162 163 165 172 178 190 182 167 188 174 161 147 146 151 149 142 144 135 138 151 147 155 146 135 142 136 130
158 156 173 183 185 188 187 185 189 176 175 177 173 168 171 174 175 176 180 183 187 191 212 185 172 179 165 161 158 166 156 145 144 141 153 157 149 159 153 148 147 143 139
25 106 184 188 187 192 190 191 193 191 178 184 181 176 178 187 189 186 188 197 194 181 212 197 167 182 167 180 169 180 164 151 143 143 156 162 153 162 157 149 147 145 140
8 15 344 204 195 196 200 199 205 210 181 179 180 184 184 191 200 196 189 195 204 193 206 206 196 191 183 177 190 183 146 152 148 143 140 150 167 163 156 151 151 148 142
10 355 349 297 259 216 209 210 201 203 205 179 185 184 194 197 205 207 197 200 209 201 209 207 204 198 185 187 188 175 156 158 153 147 154 170 195 169 159 157 153 146 140
14 12 1 349 325 307 258 222 221 220 201 188 181 180 191 202 199 204 202 206 209 209 209 195 195 193 177 180 181 160 161 154 149 162 160 173 203 174 164 159 153 147 141
12 9 2 353 351 342 299 264 229 213 198 183 180 177 179 220 208 214 198 224 202 218 227 203 190 180 154 133 135 148 160 165 157 160 160 186 198 175 163 158 152 144 136
7 3 358 352 347 342 332 300 263 227 192 180 173 164 143 156 236 241 213 228 227 230 255 233 200 179 129 132 134 142 128 130 152 165 172 196 191 178 166 157 149 143 126
355 355 356 349 345 340 339 328 298 317 329 175 128 124 133 144 314 307 308 272 251 244 257 267 236 143 113 113 119 127 140 151 171 183 192 198 191 181 166 153 143 132 127
348 350 351 346 344 343 339 328 307 276 279 46 113 129 141 121 127 97 309 327 323 322 330 330 133 120 127 148 129 126 187 180 202 217 212 197 186 189 173 156 138 129 122
351 351 347 346 343 345 335 331 322 295 209 235 181 171 161 153 182 171 197 272 291 284 261 130 122 121 128 135 135 127 195 123 217 190 213 136 110 173 197 153 126 127 119
352 349 349 343 343 344 339 328 324 321 282 205 182 191 161 171 178 186 219 225 243 259 196 160 137 129 137 114 104 136 104 93 59 230 156 172 140 131 33 97 118 119 122
348 348 346 346 343 341 340 331 314 311 303 257 208 186 177 174 168 176 186 224 230 221 185 163 148 145 118 127 109 105 77 66 68 217 133 148 148 142 139 131 131 131 126
346 344 348 345 345 340 334 322 320 314 306 257 215 201 176 173 177 175 177 203 226 210 175 162 133 131 108 99 89 83 77 40 43 51 137 140 130 137 147 147 140 132 128
348 348 344 347 346 342 335 328 322 306 302 285 219 187 185 170 175 179 172 197 213 201 170 156 142 110 100 93 88 60 46 53 52 42 38 141 133 132 142 137 136 129 129
350 348 345 348 349 342 335 332 318 316 309 307 262 199 197 175 167 179 171 194 196 176 161 147 124 129 120 97 82 64 35 38 46 53 61 90 95 99 101 97 115 118 125
351 349 347 346 347 344 341 335 329 327 338 326 314 272 220 225 162 171 168 183 189 153 134 121 120 109 117 115 95 67 48 33 42 49 44 61 90 85 88 90 94 115 122
355 351 351 348 348 346 349 343 341 333 326 310 321 327 266 236 189 164 170 182 175 160 148 141 132 128 118 142 103 82 62 39 43 36 44 47 63 78 86 85 77 96 106
349 350 347 349 346 344 345 335 327 318 308 304 299 329 300 265 216 174 167 180 168 141 140 147 147 137 130 178 136 122 112 29 34 34 40 39 57 56 67 73 74 76 80
351 347 345 343 341 342 341 334 329 317 329 335 338 325 326 319 242 196 173 172 161 161 160 161 158 151 155 193 105 133 149 142 113 12 27 20 58 51 57 67 68 71 73
344 341 341 339 338 340 341 339 337 332 326 320 312 309 315 286 257 207 176 170 169 167 165 170 172 164 158 157 132 43 342 122 127 95 16 15 42 45 47 55 68 58 77
341 342 338 334 336 336 341 340 334 328 327 309 324 317 303 324 252 222 185 168 173 170 175 171 174 173 174 153 139 142 108 72 26 128 119 144 57 33 26 39 59 62 47
340 343 340 338 337 339 339 334 333 330 328 323 335 320 324 316 320 245 199 177 177 175 174 176 181 169 165 131 137 147 154 159 164 135 125 134 109 51 27 27 51 54 49